Franklin, NC

9:51 PM EDT on March 30, 2017 (GMT -0400)
Franklin

Weather History for K1A5 - November, 2013

Change the Weather History Date:

Sunday, November 17, 2013

  Actual Average (KTOC) Record (KTOC)
Temperature  
Mean Temperature 57 °F -  
Max Temperature 61 °F 63 °F 77 °F (2016)
Min Temperature 53 °F 40 °F 32 °F (2014)
Degree Days  
Heating Degree Days 8    
Growing Degree Days 7 (Base 50)    
Moisture  
Dew Point 54 °F    
Average Humidity 92    
Maximum Humidity 100    
Minimum Humidity 75    
Precipitation  
Precipitation 0.00 in - - ()
Sea Level Pressure  
Sea Level Pressure 30.08 in    
Wind  
Wind Speed 1 mph (SE)    
Max Wind Speed 8 mph    
Max Gust Speed 17 mph    
Visibility 9 miles    
Events Rain    
Averages and records for this station are not official NWS values.
T = Trace of Precipitation, MM = Missing Value Source: NWS Daily Summary

Daily Weather History Graph

Daily Weather History Graph

Search for Another Location

Airport or City:

Trip Planner

Search our weather history database for the weather conditions in past years. The results will help you decide how hot, cold, wet, or windy it might be!

Date:

Astronomy

Nov. 17, 2013 Rise Set
Actual Time 7:10 AM EST 5:26 PM EST
Civil Twilight 6:43 AM EST 5:53 PM EST
Nautical Twilight 6:12 AM EST 6:24 PM EST
Astronomical Twilight 5:42 AM EST 6:54 PM EST
Moon 5:42 PM EST (11/17) 7:04 AM EST (11/17)
Length of Visible Light 11h 09m
Length of Day
10h 15m
Full, 100% of the Moon is Illuminated
Nov 17
Full
Nov 25
Last Quarter
Dec 2
New
Dec 9
First Quarter
Dec 17
Full

Hourly Weather History & Observations

Time (EST) Temp. Dew Point Humidity Pressure Visibility Wind Dir Wind Speed Gust Speed Precip Events Conditions
12:15 AM 53.8 °F 51.4 °F 92% 30.22 in 10.0 mi Calm Calm - N/A   Overcast
12:35 AM 54.3 °F 51.4 °F 90% 30.22 in 10.0 mi Calm Calm - N/A   Overcast
12:55 AM 53.2 °F 52.0 °F 95% 30.21 in 10.0 mi Calm Calm - N/A   Overcast
1:15 AM 53.2 °F 51.8 °F 95% 30.20 in 10.0 mi Calm Calm - N/A   Overcast
1:35 AM 53.2 °F 52.2 °F 96% 30.19 in 10.0 mi Calm Calm - N/A   Overcast
1:55 AM 53.6 °F 51.8 °F 94% 30.18 in 10.0 mi Calm Calm - N/A   Overcast
2:15 AM 53.6 °F 52.3 °F 95% 30.18 in 10.0 mi Calm Calm - N/A   Overcast
2:35 AM 54.0 °F 52.0 °F 93% 30.18 in 10.0 mi Calm Calm - N/A   Overcast
2:55 AM 54.1 °F 52.0 °F 92% 30.17 in 10.0 mi Calm Calm - N/A   Overcast
3:15 AM 53.8 °F 52.5 °F 95% 30.17 in 10.0 mi Calm Calm - N/A   Overcast
3:35 AM 53.8 °F 52.5 °F 95% 30.16 in 10.0 mi Calm Calm - N/A   Overcast
3:55 AM 54.3 °F 52.0 °F 92% 30.15 in 10.0 mi Calm Calm - N/A   Overcast
4:15 AM 54.5 °F 52.2 °F 92% 30.15 in 10.0 mi Calm Calm - N/A   Overcast
4:35 AM 54.9 °F 52.2 °F 91% 30.15 in 10.0 mi Calm Calm - N/A   Overcast
4:55 AM 54.9 °F 52.3 °F 91% 30.14 in 10.0 mi Calm Calm - N/A   Overcast
5:15 AM 55.0 °F 52.3 °F 91% 30.14 in 10.0 mi Calm Calm - N/A   Overcast
5:35 AM 56.7 °F 52.7 °F 87% 30.13 in 10.0 mi Calm Calm - N/A   Overcast
5:55 AM 56.8 °F 52.5 °F 85% 30.14 in 10.0 mi East 4.6 mph - N/A   Overcast
6:15 AM 56.3 °F 52.7 °F 88% 30.13 in 10.0 mi Calm Calm - N/A   Overcast
6:35 AM 55.6 °F 52.3 °F 89% 30.14 in 10.0 mi Calm Calm - N/A   Overcast
6:55 AM 56.1 °F 52.7 °F 88% 30.15 in 10.0 mi Calm Calm - N/A   Overcast
7:15 AM 57.2 °F 52.9 °F 85% 30.14 in 10.0 mi ESE 3.5 mph - N/A   Overcast
7:35 AM 57.7 °F 53.1 °F 84% 30.14 in 10.0 mi Calm Calm - N/A   Overcast
7:55 AM 56.8 °F 52.7 °F 86% 30.14 in 10.0 mi ENE 4.6 mph - N/A   Overcast
8:15 AM 56.5 °F 53.1 °F 88% 30.15 in 10.0 mi Calm Calm - N/A   Overcast
8:35 AM 58.3 °F 53.1 °F 83% 30.14 in 10.0 mi Calm Calm - N/A   Overcast
8:55 AM 59.7 °F 52.0 °F 76% 30.14 in 10.0 mi SSE 4.6 mph - N/A   Overcast
9:15 AM 60.1 °F 52.2 °F 75% 30.14 in 10.0 mi South 6.9 mph - N/A   Overcast
9:35 AM 60.3 °F 52.3 °F 75% 30.14 in 10.0 mi SE 4.6 mph - N/A   Overcast
9:55 AM 60.1 °F 53.1 °F 78% 30.14 in 10.0 mi SE 6.9 mph - N/A   Overcast
10:15 AM 59.9 °F 54.3 °F 82% 30.14 in 10.0 mi SSE 5.8 mph - N/A   Overcast
10:35 AM 59.4 °F 54.5 °F 84% 30.14 in 5.0 mi SSE 6.9 mph - N/A   Haze
10:55 AM 60.1 °F 54.5 °F 82% 30.14 in 10.0 mi Calm Calm - N/A   Overcast
11:15 AM 61.0 °F 54.0 °F 78% 30.12 in 10.0 mi SSE 6.9 mph 17.3 mph N/A   Overcast
11:35 AM 60.8 °F 54.7 °F 80% 30.11 in 10.0 mi SE 5.8 mph - N/A   Overcast
11:55 AM 60.1 °F 54.9 °F 83% 30.11 in 5.0 mi SSE 5.8 mph - N/A   Haze
12:15 PM 60.3 °F 55.2 °F 83% 30.08 in 10.0 mi SSE 8.1 mph - N/A   Overcast
12:35 PM 59.9 °F 55.4 °F 85% 30.07 in 5.0 mi SSE 6.9 mph - N/A   Haze
12:55 PM 59.5 °F 55.6 °F 87% 30.06 in 5.0 mi SSE 4.6 mph - N/A   Overcast
1:15 PM 59.4 °F 55.9 °F 88% 30.05 in 4.0 mi SSE 8.1 mph - N/A   Overcast
1:35 PM 59.4 °F 55.9 °F 88% 30.05 in 5.0 mi SE 3.5 mph - N/A   Overcast
1:55 PM 59.0 °F 55.9 °F 90% 30.03 in 7.0 mi SSE 5.8 mph - N/A Rain Light Rain
2:15 PM 58.8 °F 56.3 °F 91% 30.03 in 10.0 mi Calm Calm - N/A Rain Light Rain
2:35 PM 59.2 °F 55.8 °F 88% 30.02 in 10.0 mi SSE 3.5 mph - N/A   Light Drizzle
2:55 PM 59.0 °F 55.9 °F 90% 30.02 in 10.0 mi Calm Calm - N/A Rain Rain
3:15 PM 58.5 °F 55.9 °F 91% 30.02 in 3.0 mi SE 5.8 mph - N/A Rain Rain
3:35 PM 57.9 °F 57.0 °F 97% 30.00 in 10.0 mi Calm Calm - N/A Rain Rain
3:55 PM 57.7 °F 57.4 °F 99% 29.99 in 10.0 mi East 3.5 mph - N/A   Overcast
4:15 PM 57.6 °F 57.2 °F 99% 29.99 in 10.0 mi Calm Calm - N/A   Overcast
4:35 PM 57.4 °F 56.8 °F 98% 29.99 in 10.0 mi Calm Calm - N/A Rain Rain
4:55 PM 58.1 °F 56.3 °F 94% 29.99 in 7.0 mi SSE 3.5 mph - N/A Rain Rain
5:15 PM 58.3 °F 55.9 °F 92% 29.99 in 10.0 mi SSE 4.6 mph - N/A Rain Light Rain
5:35 PM 57.7 °F 55.9 °F 94% 29.99 in 10.0 mi Calm Calm - N/A   Light Drizzle
5:55 PM 56.8 °F 56.8 °F 100% 29.99 in 5.0 mi Calm Calm - N/A Rain Rain
6:15 PM 56.5 °F 56.5 °F 100% 30.00 in 10.0 mi Calm Calm - N/A Rain Rain
6:35 PM 56.3 °F 56.3 °F 100% 30.00 in 7.0 mi Calm Calm - N/A   Drizzle
6:55 PM 56.3 °F 56.3 °F 100% 30.00 in 5.0 mi Calm Calm - N/A   Drizzle
7:15 PM 56.3 °F 56.3 °F 100% 29.99 in 7.0 mi Calm Calm - N/A   Drizzle
7:35 PM 56.5 °F 56.5 °F 100% 29.99 in 5.0 mi Calm Calm - N/A Rain Heavy Rain
7:55 PM 56.3 °F 56.3 °F 100% 29.98 in 7.0 mi Calm Calm - N/A   Drizzle
8:15 PM 56.3 °F 56.3 °F 100% 29.98 in 10.0 mi Calm Calm - N/A   Drizzle
8:35 PM 56.3 °F 56.3 °F 100% 29.98 in 10.0 mi Calm Calm - N/A   Light Drizzle
8:55 PM 56.3 °F 56.3 °F 100% 29.98 in 10.0 mi Calm Calm - N/A   Light Drizzle
9:15 PM 56.5 °F 56.3 °F 99% 29.98 in 10.0 mi Calm Calm - N/A Rain Light Rain
9:35 PM 56.3 °F 56.3 °F 100% 29.98 in 10.0 mi Calm Calm - N/A Rain Rain
9:55 PM 56.7 °F 56.5 °F 99% 29.98 in 10.0 mi Calm Calm - N/A   Drizzle
10:15 PM 56.3 °F 56.3 °F 100% 29.99 in 10.0 mi Calm Calm - N/A   Light Drizzle
10:35 PM 56.3 °F 55.9 °F 99% 29.98 in 10.0 mi Calm Calm - N/A   Drizzle
10:55 PM 55.9 °F 55.6 °F 99% 29.97 in 7.0 mi Calm Calm - N/A   Overcast
11:15 PM 55.9 °F 55.6 °F 99% 29.97 in 10.0 mi Calm Calm - N/A   Overcast
11:35 PM 56.1 °F 55.6 °F 98% 29.96 in 10.0 mi Calm Calm - N/A   Overcast
11:55 PM 55.4 °F 54.9 °F 98% 29.96 in 7.0 mi Calm Calm - N/A   Overcast